Location: Emory University Observatory
(33.7903°N, 84.3267°W)
Time: 20:04:28
(UTC-04:00)

Envisat - Pass Details

Date: 15 October 2017
Orbit: 764 x 766 km, 98.2° (Epoch: 18 October)

Event Time Altitude Azimuth Distance (km) Brightness Sun altitude
Exits shadow 21:23:15 22° 358° (N) 1,636 4.8 -29.8°
Drops below altitude 10° 21:24:59 10° 354° (N) 2,305 5.6 -30.2°
Sets 21:27:19 0° 352° (N) 3,235 6.5 -30.7°
